����,���ϕ���(m/s),���ϕ���,�ő�u�ԕ���(m/s),�ő啗��������,�C��(��),���x(%),10���Ԉړ��ώZ�J��(mm),1���Ԉړ��ώZ�J��(mm),���J��(mm),�݌v�J��(mm),����(���ώZ)(MJ/m2),����(���ώZ)(min),���n�C��(hPa),�C�ʋC��(hPa)
2021-02-22T00:00:00+09:00,0.4,�쐼,1.3,��,8.6,78.1,0,0,0,0,16.69,550,1001.9,1016.1
2021-02-22T00:01:00+09:00,0.4,�쐼,1.3,��,9,79.4,0,0,0,0,0,0,1001.9,1016
2021-02-22T00:02:00+09:00,0.4,�쐼,1.5,���쐼,8.3,77.5,0,0,0,0,0,0,1001.9,1016.1
2021-02-22T00:03:00+09:00,0.4,�쐼,1.5,���쐼,8.6,78.1,0,0,0,0,0,0,1001.9,1016.1
2021-02-22T00:04:00+09:00,0.5,�쐼,1.5,���쐼,8.7,79,0,0,0,0,0,0,1001.9,1016.1
2021-02-22T00:05:00+09:00,0.6,���쐼,1.5,���쐼,8.3,78.4,0,0,0,0,0,0,1001.8,1016
2021-02-22T00:06:00+09:00,0.6,���쐼,1.5,���쐼,8.3,78.2,0,0,0,0,0,0,1001.8,1016
2021-02-22T00:07:00+09:00,0.8,���쐼,2.3,��,8.3,79.1,0,0,0,0,0,0,1001.8,1016
2021-02-22T00:08:00+09:00,0.9,���쐼,2.3,��,8.3,79.3,0,0,0,0,0,0,1001.8,1016
2021-02-22T00:09:00+09:00,1.1,��,3.3,���k��,8.5,80.1,0,0,0,0,0,0,1001.8,1016
2021-02-22T00:10:00+09:00,1.3,��,3.3,���k��,8.3,79.8,0,0,0,0,0,0,1001.8,1016
2021-02-22T00:11:00+09:00,1.4,��,3.3,���k��,8,79.2,0,0,0,0,0,0,1001.8,1016
2021-02-22T00:12:00+09:00,1.4,���쐼,3.3,���k��,7.9,79.4,0,0,0,0,0,0,1001.8,1016
2021-02-22T00:13:00+09:00,1.3,���쐼,3.3,���k��,7.9,80.1,0,0,0,0,0,0,1001.8,1016
2021-02-22T00:14:00+09:00,1.2,���쐼,3.3,���k��,8.1,81.1,0,0,0,0,0,0,1001.8,1016
2021-02-22T00:15:00+09:00,1.2,��,3.3,���k��,8,81.3,0,0,0,0,0,0,1001.8,1016
2021-02-22T00:16:00+09:00,1.1,��,3.3,���k��,7.6,80.1,0,0,0,0,0,0,1001.8,1016
2021-02-22T00:17:00+09:00,0.9,�k,3.3,���k��,7.5,80.2,0,0,0,0,0,0,1001.8,1016
2021-02-22T00:18:00+09:00,0.8,�k�k��,3.3,���k��,7.5,81.4,0,0,0,0,0,0,1001.7,1015.9
2021-02-22T00:19:00+09:00,0.6,�k��,2.8,��,7.3,81.4,0,0,0,0,0,0,1001.8,1016
2021-02-22T00:20:00+09:00,0.4,�k��,2.6,���쐼,7.4,82.2,0,0,0,0,0,0,1001.8,1016
2021-02-22T00:21:00+09:00,0.3,���k��,1,��,7.2,82.5,0,0,0,0,0,0,1001.8,1016
2021-02-22T00:22:00+09:00,0.3,���k��,1,��,7,82.3,0,0,0,0,0,0,1001.7,1015.9
2021-02-22T00:23:00+09:00,0.3,���k��,1,��,7.1,83.1,0,0,0,0,0,0,1001.7,1015.9
2021-02-22T00:24:00+09:00,0.3,���k��,1,��,7.3,84.3,0,0,0,0,0,0,1001.7,1015.9
2021-02-22T00:25:00+09:00,0.3,��,1,��,7.5,85.3,0,0,0,0,0,0,1001.8,1016
2021-02-22T00:26:00+09:00,0.3,���쓌,1,��,7.5,85.5,0,0,0,0,0,0,1001.8,1016
2021-02-22T00:27:00+09:00,0.3,�쓌,1,��,7.2,83.6,0,0,0,0,0,0,1001.7,1015.9
2021-02-22T00:28:00+09:00,0.3,�쓌,1,��,7,83.2,0,0,0,0,0,0,1001.7,1015.9
2021-02-22T00:29:00+09:00,0.3,��쓌,1,��,7.3,84.2,0,0,0,0,0,0,1001.7,1015.9
2021-02-22T00:30:00+09:00,0.3,�쓌,1,��,7.6,85.5,0,0,0,0,0,0,1001.7,1015.9
2021-02-22T00:31:00+09:00,0.3,��,1,��,7.4,84.6,0,0,0,0,0,0,1001.8,1016
2021-02-22T00:32:00+09:00,0.3,��,1.5,��,7.3,83.7,0,0,0,0,0,0,1001.8,1016
2021-02-22T00:33:00+09:00,0.3,��,1.5,��,7,83.3,0,0,0,0,0,0,1001.8,1016
2021-02-22T00:34:00+09:00,0.3,�쓌,1.5,��,7,83.4,0,0,0,0,0,0,1001.7,1015.9
2021-02-22T00:35:00+09:00,0.3,�쓌,1.5,��,7,84,0,0,0,0,0,0,1001.7,1015.9
2021-02-22T00:36:00+09:00,0.3,�쓌,1.5,��,7.1,84.3,0,0,0,0,0,0,1001.8,1016
2021-02-22T00:37:00+09:00,0.4,��쓌,1.5,��,7.4,85.6,0,0,0,0,0,0,1001.8,1016
2021-02-22T00:38:00+09:00,0.4,��,1.5,��,7.3,85.3,0,0,0,0,0,0,1001.8,1016
2021-02-22T00:39:00+09:00,0.4,��쓌,1.5,��,7.2,84.4,0,0,0,0,0,0,1001.8,1016
2021-02-22T00:40:00+09:00,0.4,��쓌,1.5,��,7.3,84.8,0,0,0,0,0,0,1001.8,1016
2021-02-22T00:41:00+09:00,0.4,��쓌,1.5,��,7.5,85.3,0,0,0,0,0,0,1001.8,1016
2021-02-22T00:42:00+09:00,0.4,��,1.2,���쓌,7.6,85.1,0,0,0,0,0,0,1001.8,1016
2021-02-22T00:43:00+09:00,0.5,��,1.7,�쐼,7.7,85,0,0,0,0,0,0,1001.8,1016
2021-02-22T00:44:00+09:00,0.6,��,1.7,�쐼,7.5,83.8,0,0,0,0,0,0,1001.8,1016
2021-02-22T00:45:00+09:00,0.6,��쐼,1.7,�쐼,7.4,82.5,0,0,0,0,0,0,1001.9,1016.1
2021-02-22T00:46:00+09:00,0.6,��쐼,1.7,�쐼,7.4,83.3,0,0,0,0,0,0,1001.9,1016.1
2021-02-22T00:47:00+09:00,0.6,��쐼,1.7,�쐼,7.4,82.8,0,0,0,0,0,0,1001.9,1016.1
2021-02-22T00:48:00+09:00,0.7,��쐼,1.7,�쐼,7.6,83.7,0,0,0,0,0,0,1001.9,1016.1
2021-02-22T00:49:00+09:00,0.8,��쐼,1.8,��,7.8,83.8,0,0,0,0,0,0,1001.9,1016.1
2021-02-22T00:50:00+09:00,0.8,��쐼,2,��쐼,7.5,83.5,0,0,0,0,0,0,1001.8,1016
2021-02-22T00:51:00+09:00,0.8,�쐼,2,��쐼,7.4,82.1,0,0,0,0,0,0,1001.8,1016
2021-02-22T00:52:00+09:00,0.9,��쐼,2,��쐼,7.4,82.6,0,0,0,0,0,0,1001.7,1015.9
2021-02-22T00:53:00+09:00,0.9,��쐼,2,��쐼,7,81.7,0,0,0,0,0,0,1001.7,1015.9
2021-02-22T00:54:00+09:00,1,��쐼,2.2,��쐼,6.9,81.9,0,0,0,0,0,0,1001.8,1016
2021-02-22T00:55:00+09:00,1.1,��쐼,2.2,��쐼,6.8,82.9,0,0,0,0,0,0,1001.8,1016.1
2021-02-22T00:56:00+09:00,1.2,��쐼,2.3,���쐼,7.1,83.7,0,0,0,0,0,0,1001.7,1015.9
2021-02-22T00:57:00+09:00,1.2,��쐼,2.3,���쐼,7.3,85.5,0,0,0,0,0,0,1001.7,1015.9
2021-02-22T00:58:00+09:00,1.3,��쐼,2.3,���쐼,7.2,84.7,0,0,0,0,0,0,1001.7,1015.9
2021-02-22T00:59:00+09:00,1.3,��쐼,2.3,���쐼,7,84.1,0,0,0,0,0,0,1001.7,1015.9
2021-02-22T01:00:00+09:00,1.2,��쐼,2.3,���쐼,7.1,83.9,0,0,0,0,0,0,1001.8,1016
2021-02-22T01:01:00+09:00,1.4,��쐼,2.7,�쐼,7.3,85.2,0,0,0,0,0,0,1001.7,1015.9
2021-02-22T01:02:00+09:00,1.4,��쐼,2.7,�쐼,7.3,84.8,0,0,0,0,0,0,1001.7,1015.9
2021-02-22T01:03:00+09:00,1.4,�쐼,2.7,�쐼,7.1,84,0,0,0,0,0,0,1001.8,1016
2021-02-22T01:04:00+09:00,1.3,�쐼,2.7,�쐼,7.2,84,0,0,0,0,0,0,1001.7,1015.9
2021-02-22T01:05:00+09:00,1.2,�쐼,2.7,�쐼,7.2,84.1,0,0,0,0,0,0,1001.7,1015.9
2021-02-22T01:06:00+09:00,1.1,�쐼,2.7,�쐼,7.2,84.1,0,0,0,0,0,0,1001.7,1015.9
2021-02-22T01:07:00+09:00,1.1,�쐼,2.7,�쐼,7.2,84.1,0,0,0,0,0,0,1001.7,1015.9
2021-02-22T01:08:00+09:00,1.1,�쐼,2.7,�쐼,7.1,83.8,0,0,0,0,0,0,1001.7,1015.9
2021-02-22T01:09:00+09:00,1.1,�쐼,2.7,�쐼,7.1,84.1,0,0,0,0,0,0,1001.7,1015.9
2021-02-22T01:10:00+09:00,1.1,�쐼,2.7,�쐼,7.2,84.5,0,0,0,0,0,0,1001.7,1015.9
2021-02-22T01:11:00+09:00,1,�쐼,2,���쐼,7.2,84.2,0,0,0,0,0,0,1001.7,1015.9
2021-02-22T01:12:00+09:00,1,�쐼,2,���쐼,7.2,84.4,0,0,0,0,0,0,1001.7,1015.9
2021-02-22T01:13:00+09:00,1,�쐼,2.1,��쐼,6.8,83.5,0,0,0,0,0,0,1001.7,1016
2021-02-22T01:14:00+09:00,1.1,�쐼,2.5,�쐼,6.6,83.1,0,0,0,0,0,0,1001.8,1016.1
2021-02-22T01:15:00+09:00,1.2,��쐼,2.5,�쐼,6.7,83.6,0,0,0,0,0,0,1001.8,1016.1
2021-02-22T01:16:00+09:00,1.3,�쐼,2.6,���쐼,6.9,85.4,0,0,0,0,0,0,1001.8,1016
2021-02-22T01:17:00+09:00,1.4,�쐼,2.6,���쐼,6.8,85.6,0,0,0,0,0,0,1001.7,1016
2021-02-22T01:18:00+09:00,1.4,��쐼,2.6,���쐼,6.5,84.2,0,0,0,0,0,0,1001.7,1016
2021-02-22T01:19:00+09:00,1.4,��쐼,2.6,���쐼,6.7,84.6,0,0,0,0,0,0,1001.7,1016
2021-02-22T01:20:00+09:00,1.4,��쐼,2.6,���쐼,6.6,85.6,0,0,0,0,0,0,1001.8,1016.1
2021-02-22T01:21:00+09:00,1.6,��쐼,2.6,���쐼,6.5,85.3,0,0,0,0,0,0,1001.8,1016.1
2021-02-22T01:22:00+09:00,1.7,��쐼,3.1,��쐼,6.4,85.1,0,0,0,0,0,0,1001.7,1016
2021-02-22T01:23:00+09:00,1.7,�쐼,3.1,��쐼,6.5,85.8,0,0,0,0,0,0,1001.8,1016.1
2021-02-22T01:24:00+09:00,1.6,�쐼,3.1,��쐼,6.5,86.2,0,0,0,0,0,0,1001.8,1016.1
2021-02-22T01:25:00+09:00,1.7,�쐼,3.1,��쐼,6.5,86.3,0,0,0,0,0,0,1001.8,1016.1
2021-02-22T01:26:00+09:00,1.6,�쐼,3.1,��쐼,6.6,86.8,0,0,0,0,0,0,1001.8,1016.1
2021-02-22T01:27:00+09:00,1.6,�쐼,3.1,��쐼,6.6,87,0,0,0,0,0,0,1001.8,1016.1
2021-02-22T01:28:00+09:00,1.7,�쐼,3.1,��쐼,6.6,86.5,0,0,0,0,0,0,1001.8,1016.1
2021-02-22T01:29:00+09:00,1.7,�쐼,3.1,��쐼,6.8,86.7,0,0,0,0,0,0,1001.8,1016.1
2021-02-22T01:30:00+09:00,1.7,�쐼,3.1,��쐼,7,87.5,0,0,0,0,0,0,1001.8,1016
2021-02-22T01:31:00+09:00,1.7,�쐼,3.1,��쐼,7,86.7,0,0,0,0,0,0,1001.7,1015.9
2021-02-22T01:32:00+09:00,1.5,�쐼,2.5,��쐼,7.1,86.5,0,0,0,0,0,0,1001.8,1016
2021-02-22T01:33:00+09:00,1.4,�쐼,2.5,��쐼,7.1,85.6,0,0,0,0,0,0,1001.8,1016
2021-02-22T01:34:00+09:00,1.4,�쐼,2.5,��쐼,7.4,85.6,0,0,0,0,0,0,1001.8,1016
2021-02-22T01:35:00+09:00,1.3,�쐼,2.4,���쐼,6.8,84,0,0,0,0,0,0,1001.8,1016.1
2021-02-22T01:36:00+09:00,1.2,�쐼,2.4,���쐼,6.7,83.3,0,0,0,0,0,0,1001.8,1016.1
2021-02-22T01:37:00+09:00,1,���쐼,2.4,���쐼,6.5,83.3,0,0,0,0,0,0,1001.8,1016.1
2021-02-22T01:38:00+09:00,0.9,���쐼,2.3,���쐼,6.7,84.1,0,0,0,0,0,0,1001.8,1016.1
2021-02-22T01:39:00+09:00,0.7,���쐼,2,�쐼,6.8,85.1,0,0,0,0,0,0,1001.8,1016.1
2021-02-22T01:40:00+09:00,0.6,�쐼,2,�쐼,7.2,86.2,0,0,0,0,0,0,1001.8,1016
2021-02-22T01:41:00+09:00,0.6,���쐼,1.7,�쐼,6.8,85.4,0,0,0,0,0,0,1001.8,1016.1
2021-02-22T01:42:00+09:00,0.6,���쐼,1.7,�쐼,6.5,83.5,0,0,0,0,0,0,1001.8,1016.1
2021-02-22T01:43:00+09:00,0.6,��,1.7,�쐼,6.5,83.9,0,0,0,0,0,0,1001.8,1016.1
2021-02-22T01:44:00+09:00,0.6,���k��,1.7,�쐼,6.5,84.5,0,0,0,0,0,0,1001.8,1016.1
2021-02-22T01:45:00+09:00,0.6,���k��,1.5,��,6.4,84.8,0,0,0,0,0,0,1001.8,1016.1
2021-02-22T01:46:00+09:00,0.7,��,1.5,��,6.5,85.7,0,0,0,0,0,0,1001.8,1016.1
2021-02-22T01:47:00+09:00,0.8,��,1.5,��,6.4,85.3,0,0,0,0,0,0,1001.8,1016.1
2021-02-22T01:48:00+09:00,0.9,��,1.5,��,6.4,85.5,0,0,0,0,0,0,1001.8,1016.1
2021-02-22T01:49:00+09:00,0.9,��,1.5,��,6.4,85.3,0,0,0,0,0,0,1001.8,1016.1
2021-02-22T01:50:00+09:00,1,��,1.9,���k��,6.4,85.8,0,0,0,0,0,0,1001.8,1016.1
2021-02-22T01:51:00+09:00,1.1,���k��,2,��,6.3,85.5,0,0,0,0,0,0,1001.9,1016.2
2021-02-22T01:52:00+09:00,1.1,���k��,2,��,6.4,86,0,0,0,0,0,0,1001.8,1016.1
2021-02-22T01:53:00+09:00,1.2,��,2,��,6.4,86.3,0,0,0,0,0,0,1001.8,1016.1
2021-02-22T01:54:00+09:00,1.1,��,2,��,6.6,86.9,0,0,0,0,0,0,1001.8,1016.1
2021-02-22T01:55:00+09:00,1.1,��,2,��,6.9,87.6,0,0,0,0,0,0,1001.7,1015.9
2021-02-22T01:56:00+09:00,1,��,2,��,7.1,87.9,0,0,0,0,0,0,1001.7,1015.9
2021-02-22T01:57:00+09:00,1,��,2,��,6.9,86.6,0,0,0,0,0,0,1001.7,1015.9
2021-02-22T01:58:00+09:00,0.9,��,2,��,6.5,84.4,0,0,0,0,0,0,1001.7,1016
2021-02-22T01:59:00+09:00,0.9,���쐼,2,��,6.4,84.1,0,0,0,0,0,0,1001.7,1016
2021-02-22T02:00:00+09:00,0.9,���쐼,2,��,6.3,84.2,0,0,0,0,0,0,1001.6,1015.9
2021-02-22T02:01:00+09:00,0.7,���쐼,1.8,��,6.6,85.4,0,0,0,0,0,0,1001.6,1015.9
2021-02-22T02:02:00+09:00,0.7,���쐼,1.6,���쐼,6.8,86.8,0,0,0,0,0,0,1001.6,1015.8
2021-02-22T02:03:00+09:00,0.6,���쐼,1.6,���쐼,7,87,0,0,0,0,0,0,1001.6,1015.8
2021-02-22T02:04:00+09:00,0.7,���쐼,1.6,���쐼,6.7,85.8,0,0,0,0,0,0,1001.6,1015.9
2021-02-22T02:05:00+09:00,0.6,���쐼,1.6,���쐼,6.6,84.9,0,0,0,0,0,0,1001.6,1015.9
2021-02-22T02:06:00+09:00,0.7,���쐼,1.6,���쐼,6.5,84.5,0,0,0,0,0,0,1001.6,1015.9
2021-02-22T02:07:00+09:00,0.7,�쐼,1.6,���쐼,6.7,85.2,0,0,0,0,0,0,1001.6,1015.9
2021-02-22T02:08:00+09:00,0.7,�쐼,1.6,���쐼,7,86,0,0,0,0,0,0,1001.6,1015.8
2021-02-22T02:09:00+09:00,0.6,�쐼,1.6,���쐼,6.6,85.5,0,0,0,0,0,0,1001.6,1015.9
2021-02-22T02:10:00+09:00,0.5,�쐼,1.4,��쐼,6.5,83.6,0,0,0,0,0,0,1001.6,1015.9
2021-02-22T02:11:00+09:00,0.5,�쐼,1.4,��쐼,6.8,84.8,0,0,0,0,0,0,1001.6,1015.8
2021-02-22T02:12:00+09:00,0.6,�쐼,1.6,��쐼,6.8,85.2,0,0,0,0,0,0,1001.6,1015.8
2021-02-22T02:13:00+09:00,0.6,�쐼,1.9,��쐼,7,85.5,0,0,0,0,0,0,1001.7,1015.9
2021-02-22T02:14:00+09:00,0.6,�쐼,1.9,��쐼,6.6,84,0,0,0,0,0,0,1001.6,1015.9
2021-02-22T02:15:00+09:00,0.8,�쐼,2,�쐼,6.7,84.6,0,0,0,0,0,0,1001.7,1016
2021-02-22T02:16:00+09:00,0.8,�쐼,2,�쐼,6.8,84.4,0,0,0,0,0,0,1001.6,1015.8
2021-02-22T02:17:00+09:00,0.8,�쐼,2,�쐼,6.8,85.1,0,0,0,0,0,0,1001.7,1016
2021-02-22T02:18:00+09:00,0.9,�쐼,2,�쐼,6.7,84.5,0,0,0,0,0,0,1001.6,1015.9
2021-02-22T02:19:00+09:00,0.9,�쐼,2,�쐼,6.8,84.7,0,0,0,0,0,0,1001.6,1015.8
2021-02-22T02:20:00+09:00,1,�쐼,2,�쐼,6.9,84.8,0,0,0,0,0,0,1001.7,1015.9
2021-02-22T02:21:00+09:00,1,�쐼,2,�쐼,6.8,84.9,0,0,0,0,0,0,1001.7,1016
2021-02-22T02:22:00+09:00,1.1,�쐼,2,�쐼,7,84.7,0,0,0,0,0,0,1001.7,1015.9
2021-02-22T02:23:00+09:00,1,�쐼,2,�쐼,7.2,85.2,0,0,0,0,0,0,1001.6,1015.8
2021-02-22T02:24:00+09:00,1,�쐼,2,�쐼,7.4,85.2,0,0,0,0,0,0,1001.6,1015.8
2021-02-22T02:25:00+09:00,1.1,�쐼,2.1,��,7.2,84,0,0,0,0,0,0,1001.6,1015.8
2021-02-22T02:26:00+09:00,1.1,��쐼,2.1,��,7.2,83.3,0,0,0,0,0,0,1001.6,1015.8
2021-02-22T02:27:00+09:00,1.1,�쐼,2.1,��,7.1,83,0,0,0,0,0,0,1001.6,1015.8
2021-02-22T02:28:00+09:00,1.1,�쐼,2.1,��,7.1,83.2,0,0,0,0,0,0,1001.6,1015.8
2021-02-22T02:29:00+09:00,1.1,�쐼,2.3,�k��,7,82.6,0,0,0,0,0,0,1001.6,1015.8
2021-02-22T02:30:00+09:00,1,���쐼,2.3,�k��,6.9,82.4,0,0,0,0,0,0,1001.6,1015.8
2021-02-22T02:31:00+09:00,1,�쐼,2.3,�k��,7.1,83.2,0,0,0,0,0,0,1001.7,1015.9
2021-02-22T02:32:00+09:00,1,�쐼,2.3,�k��,6.9,83,0,0,0,0,0,0,1001.7,1015.9
2021-02-22T02:33:00+09:00,1,�쐼,2.3,�k��,6.9,82.6,0,0,0,0,0,0,1001.7,1015.9
2021-02-22T02:34:00+09:00,1,�쐼,2.3,�k��,6.9,83.1,0,0,0,0,0,0,1001.6,1015.8
2021-02-22T02:35:00+09:00,0.8,�쐼,2.3,�k��,7,83.8,0,0,0,0,0,0,1001.6,1015.8
2021-02-22T02:36:00+09:00,0.8,�쐼,2.3,�k��,6.9,83.2,0,0,0,0,0,0,1001.7,1015.9
2021-02-22T02:37:00+09:00,0.7,�쐼,2.3,�k��,6.9,83.5,0,0,0,0,0,0,1001.7,1015.9
2021-02-22T02:38:00+09:00,0.7,�쐼,2.3,�k��,7.1,83.5,0,0,0,0,0,0,1001.7,1015.9
2021-02-22T02:39:00+09:00,0.6,�쐼,1.6,��쐼,7,83.7,0,0,0,0,0,0,1001.6,1015.8
2021-02-22T02:40:00+09:00,0.7,���쐼,1.6,��쐼,7.2,83.3,0,0,0,0,0,0,1001.7,1015.9
2021-02-22T02:41:00+09:00,0.6,���쐼,1.6,��쐼,7,82.9,0,0,0,0,0,0,1001.7,1015.9
2021-02-22T02:42:00+09:00,0.6,���쐼,1.6,��쐼,6.8,82.3,0,0,0,0,0,0,1001.7,1016
2021-02-22T02:43:00+09:00,0.5,���쐼,1.3,���k��,7.1,83.2,0,0,0,0,0,0,1001.7,1015.9
2021-02-22T02:44:00+09:00,0.6,���쐼,1.4,��쓌,6.9,82.7,0,0,0,0,0,0,1001.7,1015.9
2021-02-22T02:45:00+09:00,0.6,���쐼,1.4,��쓌,7.2,83.2,0,0,0,0,0,0,1001.7,1015.9
2021-02-22T02:46:00+09:00,0.6,���쐼,1.6,���k��,6.9,82.7,0,0,0,0,0,0,1001.7,1015.9
2021-02-22T02:47:00+09:00,0.6,���쐼,1.6,���k��,6.4,80.8,0,0,0,0,0,0,1001.7,1016
2021-02-22T02:48:00+09:00,0.6,���쐼,1.6,���k��,6.6,82.3,0,0,0,0,0,0,1001.7,1016
2021-02-22T02:49:00+09:00,0.7,���쐼,1.6,���k��,6.7,83.5,0,0,0,0,0,0,1001.7,1016
2021-02-22T02:50:00+09:00,0.7,���쐼,1.6,���k��,6.7,84,0,0,0,0,0,0,1001.7,1016
2021-02-22T02:51:00+09:00,0.7,���쐼,1.6,���k��,6.9,84.1,0,0,0,0,0,0,1001.7,1015.9
2021-02-22T02:52:00+09:00,0.7,��,1.6,���k��,7.1,84.7,0,0,0,0,0,0,1001.7,1015.9
2021-02-22T02:53:00+09:00,0.6,��,1.6,���k��,7.3,84.8,0,0,0,0,0,0,1001.7,1015.9
2021-02-22T02:54:00+09:00,0.6,���k��,1.6,���k��,7.6,84.4,0,0,0,0,0,0,1001.7,1015.9
2021-02-22T02:55:00+09:00,0.6,���k��,1.6,���k��,8,84.4,0,0,0,0,0,0,1001.7,1015.9
2021-02-22T02:56:00+09:00,0.6,���k��,1.4,���k��,8,82.9,0,0,0,0,0,0,1001.6,1015.8
2021-02-22T02:57:00+09:00,0.5,���k��,1.4,���k��,8.2,81.2,0,0,0,0,0,0,1001.6,1015.8
2021-02-22T02:58:00+09:00,0.4,���k��,1.1,��,8.3,80.4,0,0,0,0,0,0,1001.6,1015.8
2021-02-22T02:59:00+09:00,0.4,���k��,1.1,��,8.1,78.8,0,0,0,0,0,0,1001.6,1015.8
2021-02-22T03:00:00+09:00,0.3,���k��,1.1,��,7.7,77.7,0,0,0,0,0,0,1001.7,1015.9
2021-02-22T03:01:00+09:00,0.4,��,1.1,��,7.5,77.4,0,0,0,0,0,0,1001.7,1015.9
2021-02-22T03:02:00+09:00,0.4,��,1.1,��,7.5,78.1,0,0,0,0,0,0,1001.7,1015.9
2021-02-22T03:03:00+09:00,0.4,��,1.1,��,7.5,79.2,0,0,0,0,0,0,1001.6,1015.8
2021-02-22T03:04:00+09:00,0.4,��,1.1,���k��,7.6,80.1,0,0,0,0,0,0,1001.6,1015.8
2021-02-22T03:05:00+09:00,0.3,��,1.1,���k��,7.7,80.2,0,0,0,0,0,0,1001.6,1015.8
2021-02-22T03:06:00+09:00,0.3,��,1.1,���k��,7.9,81.1,0,0,0,0,0,0,1001.6,1015.8
2021-02-22T03:07:00+09:00,0.3,��,1.1,���k��,7.6,79.9,0,0,0,0,0,0,1001.6,1015.8
2021-02-22T03:08:00+09:00,0.4,��,1.2,�쐼,7.6,79.4,0,0,0,0,0,0,1001.6,1015.8
2021-02-22T03:09:00+09:00,0.4,��,1.4,�쐼,7.3,79.7,0,0,0,0,0,0,1001.6,1015.8
2021-02-22T03:10:00+09:00,0.6,��,2.5,��,6.9,78.5,0,0,0,0,0,0,1001.6,1015.8
2021-02-22T03:11:00+09:00,0.7,��,2.5,��,6.8,78.5,0,0,0,0,0,0,1001.6,1015.8
2021-02-22T03:12:00+09:00,0.7,��,2.5,��,7,81.1,0,0,0,0,0,0,1001.6,1015.8
2021-02-22T03:13:00+09:00,0.8,���쐼,2.5,��,7,81.8,0,0,0,0,0,0,1001.6,1015.8
2021-02-22T03:14:00+09:00,0.9,��,2.5,��,7.2,82.8,0,0,0,0,0,0,1001.6,1015.8
2021-02-22T03:15:00+09:00,1,���쐼,2.5,��,7.3,82.7,0,0,0,0,0,0,1001.6,1015.8
2021-02-22T03:16:00+09:00,1.2,���쐼,3,��,7.5,83.3,0,0,0,0,0,0,1001.6,1015.8
2021-02-22T03:17:00+09:00,1.4,��,3,��,7.4,82.7,0,0,0,0,0,0,1001.6,1015.8
2021-02-22T03:18:00+09:00,1.4,��,3,��,7.3,82,0,0,0,0,0,0,1001.6,1015.8
2021-02-22T03:19:00+09:00,1.5,��,3,��,7.6,82.5,0,0,0,0,0,0,1001.6,1015.8
2021-02-22T03:20:00+09:00,1.4,��,3,��,7.6,82.1,0,0,0,0,0,0,1001.6,1015.8
2021-02-22T03:21:00+09:00,1.3,��,3,��,7.5,81.8,0,0,0,0,0,0,1001.6,1015.8
2021-02-22T03:22:00+09:00,1.2,���쐼,3,��,7.9,81.7,0,0,0,0,0,0,1001.6,1015.8
2021-02-22T03:23:00+09:00,1.1,���쐼,3,��,7.9,81.4,0,0,0,0,0,0,1001.6,1015.8
2021-02-22T03:24:00+09:00,1,���쐼,3,��,7.8,80.2,0,0,0,0,0,0,1001.6,1015.8
2021-02-22T03:25:00+09:00,0.9,���쐼,3,��,7.3,78.5,0,0,0,0,0,0,1001.5,1015.7
2021-02-22T03:26:00+09:00,0.9,���쐼,2.9,��,7.5,78.9,0,0,0,0,0,0,1001.5,1015.7
2021-02-22T03:27:00+09:00,0.8,���쐼,2.4,��,7.5,79.6,0,0,0,0,0,0,1001.5,1015.7
2021-02-22T03:28:00+09:00,0.7,���쐼,2.1,��,7.7,80.7,0,0,0,0,0,0,1001.5,1015.7
2021-02-22T03:29:00+09:00,0.7,���쐼,2.1,��,7.9,81.2,0,0,0,0,0,0,1001.5,1015.7
2021-02-22T03:30:00+09:00,0.5,���쐼,2.1,��,8,80.8,0,0,0,0,0,0,1001.5,1015.7
2021-02-22T03:31:00+09:00,0.5,��,2.1,��,7.5,78.9,0,0,0,0,0,0,1001.5,1015.7
2021-02-22T03:32:00+09:00,0.6,��,2.1,��,7.9,79.4,0,0,0,0,0,0,1001.5,1015.7
2021-02-22T03:33:00+09:00,0.7,��,2.1,��,7.8,79.4,0,0,0,0,0,0,1001.5,1015.7
2021-02-22T03:34:00+09:00,0.7,���쐼,2.1,��,7.6,79.7,0,0,0,0,0,0,1001.5,1015.7
2021-02-22T03:35:00+09:00,0.8,���쐼,2.1,��,7.2,78.3,0,0,0,0,0,0,1001.4,1015.6
2021-02-22T03:36:00+09:00,0.7,���쐼,1.7,���k��,7.1,78.8,0,0,0,0,0,0,1001.4,1015.6
2021-02-22T03:37:00+09:00,0.7,���쐼,1.7,���k��,7.3,80,0,0,0,0,0,0,1001.4,1015.6
2021-02-22T03:38:00+09:00,0.7,���쐼,1.7,���k��,6.9,79.8,0,0,0,0,0,0,1001.4,1015.6
2021-02-22T03:39:00+09:00,0.7,���쐼,1.7,���k��,6.6,79.7,0,0,0,0,0,0,1001.5,1015.8
2021-02-22T03:40:00+09:00,0.8,���쐼,1.7,���k��,6.7,80.3,0,0,0,0,0,0,1001.4,1015.7
2021-02-22T03:41:00+09:00,0.8,�쐼,1.7,���k��,6.5,81.3,0,0,0,0,0,0,1001.4,1015.7
2021-02-22T03:42:00+09:00,0.8,�쐼,1.7,���k��,7.2,83.7,0,0,0,0,0,0,1001.5,1015.7
2021-02-22T03:43:00+09:00,0.8,�쐼,1.6,��,7,84,0,0,0,0,0,0,1001.5,1015.7
2021-02-22T03:44:00+09:00,0.9,���쐼,2.8,��,7.3,83.7,0,0,0,0,0,0,1001.4,1015.6
2021-02-22T03:45:00+09:00,1,���쐼,2.8,��,7.6,84.6,0,0,0,0,0,0,1001.5,1015.7
2021-02-22T03:46:00+09:00,1,���쐼,2.8,��,7.8,83.9,0,0,0,0,0,0,1001.5,1015.7
2021-02-22T03:47:00+09:00,1,���쐼,2.8,��,7.9,83.1,0,0,0,0,0,0,1001.4,1015.6
2021-02-22T03:48:00+09:00,1,���쐼,2.8,��,7.6,81.5,0,0,0,0,0,0,1001.5,1015.7
2021-02-22T03:49:00+09:00,0.9,��,2.8,��,7,78.8,0,0,0,0,0,0,1001.4,1015.6
2021-02-22T03:50:00+09:00,0.8,��,2.8,��,6.8,79,0,0,0,0,0,0,1001.5,1015.7
2021-02-22T03:51:00+09:00,0.9,��,2.8,��,6.7,79.8,0,0,0,0,0,0,1001.4,1015.7
2021-02-22T03:52:00+09:00,0.9,��,2.8,��,6.6,80.8,0,0,0,0,0,0,1001.4,1015.7
2021-02-22T03:53:00+09:00,0.9,��,2.8,��,6.6,81.7,0,0,0,0,0,0,1001.4,1015.7
2021-02-22T03:54:00+09:00,0.8,��,2.8,��,6.3,81.8,0,0,0,0,0,0,1001.4,1015.7
2021-02-22T03:55:00+09:00,0.8,���쐼,2.7,��,6.4,82.4,0,0,0,0,0,0,1001.4,1015.7
2021-02-22T03:56:00+09:00,0.8,�쐼,2.7,��,6.2,83.3,0,0,0,0,0,0,1001.4,1015.7
2021-02-22T03:57:00+09:00,0.8,�쐼,2.8,��쐼,5.9,82.6,0,0,0,0,0,0,1001.4,1015.7
2021-02-22T03:58:00+09:00,1,�쐼,2.8,��쐼,5.9,83.4,0,0,0,0,0,0,1001.4,1015.7
2021-02-22T03:59:00+09:00,1.3,�쐼,3.1,��쐼,6,84.6,0,0,0,0,0,0,1001.4,1015.7
2021-02-22T04:00:00+09:00,1.5,��쐼,3.3,��쐼,6.3,86.1,0,0,0,0,0,0,1001.4,1015.7
2021-02-22T04:01:00+09:00,1.6,��쐼,3.3,��쐼,6.2,86.4,0,0,0,0,0,0,1001.4,1015.7
2021-02-22T04:02:00+09:00,1.8,��쐼,3.3,��쐼,6.1,86,0,0,0,0,0,0,1001.4,1015.7
2021-02-22T04:03:00+09:00,1.9,��쐼,3.3,��쐼,6.2,86.3,0,0,0,0,0,0,1001.4,1015.7
2021-02-22T04:04:00+09:00,2,��쐼,3.3,��쐼,6.2,86.5,0,0,0,0,0,0,1001.4,1015.7
2021-02-22T04:05:00+09:00,2,��쐼,3.3,��쐼,6.3,86.5,0,0,0,0,0,0,1001.4,1015.7
2021-02-22T04:06:00+09:00,2,��쐼,3.3,��쐼,6.6,87.2,0,0,0,0,0,0,1001.4,1015.7
2021-02-22T04:07:00+09:00,1.9,��쐼,3.3,��쐼,6.7,87.4,0,0,0,0,0,0,1001.4,1015.7
2021-02-22T04:08:00+09:00,1.9,��쐼,3.3,��쐼,6.7,86.7,0,0,0,0,0,0,1001.4,1015.7
2021-02-22T04:09:00+09:00,1.8,��쐼,3.3,��쐼,6.6,85.7,0,0,0,0,0,0,1001.4,1015.7
2021-02-22T04:10:00+09:00,1.7,��쐼,3,��,6.6,85.2,0,0,0,0,0,0,1001.4,1015.7
2021-02-22T04:11:00+09:00,1.7,��쐼,3,��,6.5,84.9,0,0,0,0,0,0,1001.4,1015.7
2021-02-22T04:12:00+09:00,1.6,��쐼,2.7,��쐼,6.6,85.1,0,0,0,0,0,0,1001.4,1015.7
2021-02-22T04:13:00+09:00,1.5,��쐼,2.7,��쐼,6.6,85.2,0,0,0,0,0,0,1001.4,1015.7
2021-02-22T04:14:00+09:00,1.3,�쐼,2.7,��쐼,6.9,85,0,0,0,0,0,0,1001.4,1015.6
2021-02-22T04:15:00+09:00,1.2,�쐼,2.1,��쐼,6.8,85.4,0,0,0,0,0,0,1001.4,1015.6
2021-02-22T04:16:00+09:00,1.2,�쐼,2.1,��쐼,6.6,83.8,0,0,0,0,0,0,1001.4,1015.7
2021-02-22T04:17:00+09:00,1.1,�쐼,2.1,��쐼,6.7,83.8,0,0,0,0,0,0,1001.4,1015.7
2021-02-22T04:18:00+09:00,1,���쐼,2,��,6.8,84.2,0,0,0,0,0,0,1001.4,1015.6
2021-02-22T04:19:00+09:00,0.9,���쐼,1.9,��쐼,7.1,84.8,0,0,0,0,0,0,1001.4,1015.6
2021-02-22T04:20:00+09:00,0.7,���쐼,1.8,��쐼,7.3,85,0,0,0,0,0,0,1001.4,1015.6
2021-02-22T04:21:00+09:00,0.6,���쐼,1.5,��쐼,6.9,84,0,0,0,0,0,0,1001.5,1015.7
2021-02-22T04:22:00+09:00,0.6,��,1.2,���쐼,6.5,81.8,0,0,0,0,0,0,1001.4,1015.7
2021-02-22T04:23:00+09:00,0.6,��,1.1,��,6.5,81.7,0,0,0,0,0,0,1001.4,1015.7
2021-02-22T04:24:00+09:00,0.5,���k��,1.1,��,6.5,82.6,0,0,0,0,0,0,1001.4,1015.7
2021-02-22T04:25:00+09:00,0.5,�쐼,1.1,��,6.5,83.2,0,0,0,0,0,0,1001.4,1015.7
2021-02-22T04:26:00+09:00,0.5,��,1,���k��,6.4,83,0,0,0,0,0,0,1001.5,1015.8
2021-02-22T04:27:00+09:00,0.4,��쓌,1,���k��,6.2,83.2,0,0,0,0,0,0,1001.5,1015.8
2021-02-22T04:28:00+09:00,0.4,�쓌,1,���k��,6,82.8,0,0,0,0,0,0,1001.4,1015.7
2021-02-22T04:29:00+09:00,0.4,���쓌,1,���k��,6,83.5,0,0,0,0,0,0,1001.4,1015.7
2021-02-22T04:30:00+09:00,0.5,���쓌,1.3,��,6.1,84.6,0,0,0,0,0,0,1001.4,1015.7
2021-02-22T04:31:00+09:00,0.5,�쓌,1.3,��,5.9,84.6,0,0,0,0,0,0,1001.4,1015.7
2021-02-22T04:32:00+09:00,0.6,��쓌,1.7,��쐼,5.8,84.6,0,0,0,0,0,0,1001.5,1015.8
2021-02-22T04:33:00+09:00,0.6,��,1.8,��쐼,5.7,84.9,0,0,0,0,0,0,1001.4,1015.7
2021-02-22T04:34:00+09:00,0.7,��,1.8,��쐼,5.7,85.5,0,0,0,0,0,0,1001.4,1015.7
2021-02-22T04:35:00+09:00,0.8,��,1.8,��쐼,5.7,85.9,0,0,0,0,0,0,1001.4,1015.7
2021-02-22T04:36:00+09:00,0.9,��,1.8,��쐼,5.7,86.4,0,0,0,0,0,0,1001.4,1015.7
2021-02-22T04:37:00+09:00,1,��,2.7,��쐼,6.6,88.6,0,0,0,0,0,0,1001.4,1015.7
2021-02-22T04:38:00+09:00,1.2,��쐼,2.7,��쐼,7.7,92.4,0,0,0,0,0,0,1001.5,1015.7
2021-02-22T04:39:00+09:00,1.2,��쐼,2.7,��쐼,7.5,91,0,0,0,0,0,0,1001.5,1015.7
2021-02-22T04:40:00+09:00,1.3,��쐼,2.7,��쐼,7.1,86.4,0,0,0,0,0,0,1001.5,1015.7
2021-02-22T04:41:00+09:00,1.3,��쐼,2.7,��쐼,7.5,85.6,0,0,0,0,0,0,1001.5,1015.7
2021-02-22T04:42:00+09:00,1.3,��쐼,2.7,��쐼,7.1,84.1,0,0,0,0,0,0,1001.5,1015.7
2021-02-22T04:43:00+09:00,1.2,��쐼,2.7,��쐼,7.1,82.8,0,0,0,0,0,0,1001.5,1015.7
2021-02-22T04:44:00+09:00,1.1,��쐼,2.7,��쐼,6.6,82,0,0,0,0,0,0,1001.5,1015.8
2021-02-22T04:45:00+09:00,1.1,�쐼,2.7,��쐼,6.7,81.9,0,0,0,0,0,0,1001.4,1015.7
2021-02-22T04:46:00+09:00,1.1,�쐼,2.7,��쐼,6.6,82.5,0,0,0,0,0,0,1001.5,1015.8
2021-02-22T04:47:00+09:00,1.1,�쐼,2.5,��쐼,6.7,83.1,0,0,0,0,0,0,1001.4,1015.7
2021-02-22T04:48:00+09:00,1,���쐼,2,��,6.9,84.4,0,0,0,0,0,0,1001.5,1015.7
2021-02-22T04:49:00+09:00,1.1,���쐼,2,��,6.9,85,0,0,0,0,0,0,1001.5,1015.7
2021-02-22T04:50:00+09:00,1.1,���쐼,2,��,6.9,85.2,0,0,0,0,0,0,1001.5,1015.7
2021-02-22T04:51:00+09:00,1.1,���쐼,2,��,7,84.6,0,0,0,0,0,0,1001.5,1015.7
2021-02-22T04:52:00+09:00,1.1,���쐼,2,��,6.9,84.4,0,0,0,0,0,0,1001.5,1015.7
2021-02-22T04:53:00+09:00,1.2,���쐼,3,��쐼,6.4,83.4,0,0,0,0,0,0,1001.5,1015.8
2021-02-22T04:54:00+09:00,1.4,���쐼,3,��쐼,6.5,83,0,0,0,0,0,0,1001.5,1015.8
2021-02-22T04:55:00+09:00,1.5,�쐼,3,��쐼,6.4,84,0,0,0,0,0,0,1001.5,1015.8
2021-02-22T04:56:00+09:00,1.6,�쐼,3,��쐼,6.2,83.8,0,0,0,0,0,0,1001.5,1015.8
2021-02-22T04:57:00+09:00,1.7,�쐼,3,��쐼,5.9,83.3,0,0,0,0,0,0,1001.5,1015.8
2021-02-22T04:58:00+09:00,1.8,�쐼,3.1,��,5.7,83.2,0,0,0,0,0,0,1001.5,1015.8
2021-02-22T04:59:00+09:00,1.9,��쐼,3.3,��,5.6,83.6,0,0,0,0,0,0,1001.6,1015.9
2021-02-22T05:00:00+09:00,2,��쐼,3.3,��,5.6,85.1,0,0,0,0,0,0,1001.6,1015.9
2021-02-22T05:01:00+09:00,2.2,��쐼,3.3,��,5.6,85.7,0,0,0,0,0,0,1001.6,1015.9
2021-02-22T05:02:00+09:00,2.3,��쐼,3.3,��,5.7,86.8,0,0,0,0,0,0,1001.6,1015.9
2021-02-22T05:03:00+09:00,2.2,��쐼,3.3,��,5.8,87.5,0,0,0,0,0,0,1001.5,1015.8
2021-02-22T05:04:00+09:00,2.2,��쐼,3.3,��,5.8,88,0,0,0,0,0,0,1001.6,1015.9
2021-02-22T05:05:00+09:00,2.2,��쐼,3.3,��,5.7,87.4,0,0,0,0,0,0,1001.6,1015.9
2021-02-22T05:06:00+09:00,2.2,��쐼,3.3,��,5.6,87.4,0,0,0,0,0,0,1001.6,1015.9
2021-02-22T05:07:00+09:00,2.2,��쐼,3.3,��,5.5,86.9,0,0,0,0,0,0,1001.6,1015.9
2021-02-22T05:08:00+09:00,2.1,��쐼,3.3,��,5.5,87.3,0,0,0,0,0,0,1001.6,1015.9
2021-02-22T05:09:00+09:00,2.1,��쐼,3,��쐼,5.2,86.7,0,0,0,0,0,0,1001.6,1015.9
2021-02-22T05:10:00+09:00,2,��쐼,2.9,��쐼,5,86.5,0,0,0,0,0,0,1001.6,1015.9
2021-02-22T05:11:00+09:00,2,��쐼,2.9,��쐼,4.9,86.5,0,0,0,0,0,0,1001.7,1016
2021-02-22T05:12:00+09:00,2,��쐼,2.7,��쐼,5,87.3,0,0,0,0,0,0,1001.6,1015.9
2021-02-22T05:13:00+09:00,2,��쐼,2.7,��쐼,5.2,88.7,0,0,0,0,0,0,1001.7,1016
2021-02-22T05:14:00+09:00,2,��쐼,2.8,��쐼,5,88.9,0,0,0,0,0,0,1001.7,1016